Location: Arcones
(41.1182°N, 3.7238°W)
Time: 09:17:39
(UTC+00:00)

IRAS Rocket - Pass Details

Date: 18 March 2026
Orbit: 845 x 876 km, 100.1° (Epoch: 19 April)

Event Time Altitude Azimuth Distance (km) Brightness Sun altitude
Rises 21:27:28 0° 218° (SW) 3,452 7.4 -33.4°
Reaches altitude 10° 21:31:42 10° 249° (WSW) 2,516 7.0 -34.1°
Maximum altitude 21:33:38 12° 270° (W) 2,391 7.1 -34.4°
Drops below altitude 10° 21:35:35 10° 290° (WNW) 2,517 7.4 -34.7°
Sets 21:39:50 0° 322° (NW) 3,453 8.3 -35.3°
